Year,Month,Day,Hour,Minute,Value (Times are PST for temperature in C)
2013,10,14,00,00,5.60
2013,10,14,00,01,5.50
2013,10,14,00,02,5.50
2013,10,14,00,03,5.50
2013,10,14,00,04,5.50
2013,10,14,00,05,5.50
2013,10,14,00,06,5.60
2013,10,14,00,07,5.60
2013,10,14,00,08,5.60
2013,10,14,00,09,5.60
2013,10,14,00,10,5.60
2013,10,14,00,11,5.60
2013,10,14,00,12,5.60
2013,10,14,00,13,5.60
2013,10,14,00,14,5.60
2013,10,14,00,15,5.60
2013,10,14,00,16,5.60
2013,10,14,00,17,5.50
2013,10,14,00,18,5.50
2013,10,14,00,19,5.50
2013,10,14,00,20,5.40
2013,10,14,00,21,5.40
2013,10,14,00,22,5.40
2013,10,14,00,23,5.40
2013,10,14,00,24,5.30
2013,10,14,00,25,5.30
2013,10,14,00,26,5.30
2013,10,14,00,27,5.30
2013,10,14,00,28,5.30
2013,10,14,00,29,5.30
2013,10,14,00,30,5.30
2013,10,14,00,31,5.20
2013,10,14,00,32,5.20
2013,10,14,00,33,5.20
2013,10,14,00,34,5.20
2013,10,14,00,35,5.20
2013,10,14,00,36,5.20
2013,10,14,00,37,5.20
2013,10,14,00,38,5.20
2013,10,14,00,39,5.20
2013,10,14,00,40,5.20
2013,10,14,00,41,5.20
2013,10,14,00,42,5.20
2013,10,14,00,43,5.20
2013,10,14,00,44,5.20
2013,10,14,00,45,5.20
2013,10,14,00,46,5.20
2013,10,14,00,47,5.20
2013,10,14,00,48,5.20
2013,10,14,00,49,5.20
2013,10,14,00,50,5.10
2013,10,14,00,51,5.10
2013,10,14,00,52,5.10
2013,10,14,00,53,5.10
2013,10,14,00,54,5.10
2013,10,14,00,55,5.10
2013,10,14,00,56,5.00
2013,10,14,00,57,4.90
2013,10,14,00,58,4.90
2013,10,14,00,59,4.90
2013,10,14,01,00,4.90
2013,10,14,01,01,4.90
2013,10,14,01,02,4.90
2013,10,14,01,03,4.90
2013,10,14,01,04,4.90
2013,10,14,01,05,4.90
2013,10,14,01,06,4.90
2013,10,14,01,07,4.90
2013,10,14,01,08,4.90
2013,10,14,01,09,4.90
2013,10,14,01,10,4.90
2013,10,14,01,11,4.90
2013,10,14,01,12,4.90
2013,10,14,01,13,4.90
2013,10,14,01,14,4.90
2013,10,14,01,15,4.90
2013,10,14,01,16,4.90
2013,10,14,01,17,4.90
2013,10,14,01,18,4.90
2013,10,14,01,19,4.90
2013,10,14,01,20,4.90
2013,10,14,01,21,4.90
2013,10,14,01,22,4.80
2013,10,14,01,23,4.80
2013,10,14,01,24,4.80
2013,10,14,01,25,4.80
2013,10,14,01,26,4.80
2013,10,14,01,27,4.70
2013,10,14,01,28,4.70
2013,10,14,01,29,4.70
2013,10,14,01,30,4.70
2013,10,14,01,31,4.70
2013,10,14,01,32,4.70
2013,10,14,01,33,4.70
2013,10,14,01,34,4.70
2013,10,14,01,35,4.60
2013,10,14,01,36,4.60
2013,10,14,01,37,4.60
2013,10,14,01,38,4.60
2013,10,14,01,39,4.60
2013,10,14,01,40,4.60
2013,10,14,01,41,4.60
2013,10,14,01,42,4.60
2013,10,14,01,43,4.60
2013,10,14,01,44,4.60
2013,10,14,01,45,4.60
2013,10,14,01,46,4.60
2013,10,14,01,47,4.60
2013,10,14,01,48,4.60
2013,10,14,01,49,4.60
2013,10,14,01,50,4.60
2013,10,14,01,51,4.60
2013,10,14,01,52,4.70
2013,10,14,01,53,4.70
2013,10,14,01,54,4.70
2013,10,14,01,55,4.70
2013,10,14,01,56,4.70
2013,10,14,01,57,4.70
2013,10,14,01,58,4.70
2013,10,14,01,59,4.70
2013,10,14,02,00,4.70
2013,10,14,02,01,4.60
2013,10,14,02,02,4.60
2013,10,14,02,03,4.60
2013,10,14,02,04,4.60
2013,10,14,02,05,4.60
2013,10,14,02,06,4.60
2013,10,14,02,07,4.60
2013,10,14,02,08,4.50
2013,10,14,02,09,4.50
2013,10,14,02,10,4.50
2013,10,14,02,11,4.50
2013,10,14,02,12,4.40
2013,10,14,02,13,4.40
2013,10,14,02,14,4.30
2013,10,14,02,15,4.30
2013,10,14,02,16,4.30
2013,10,14,02,17,4.30
2013,10,14,02,18,4.30
2013,10,14,02,19,4.40
2013,10,14,02,20,4.40
2013,10,14,02,21,4.40
2013,10,14,02,22,4.40
2013,10,14,02,23,4.40
2013,10,14,02,24,4.40
2013,10,14,02,25,4.30
2013,10,14,02,26,4.30
2013,10,14,02,27,4.30
2013,10,14,02,28,4.30
2013,10,14,02,29,4.20
2013,10,14,02,30,4.20
2013,10,14,02,31,4.20
2013,10,14,02,32,4.20
2013,10,14,02,33,4.20
2013,10,14,02,34,4.20
2013,10,14,02,35,4.20
2013,10,14,02,36,4.20
2013,10,14,02,37,4.20
2013,10,14,02,38,4.20
2013,10,14,02,39,4.20
2013,10,14,02,40,4.20
2013,10,14,02,41,4.20
2013,10,14,02,42,4.20
2013,10,14,02,43,4.20
2013,10,14,02,44,4.20
2013,10,14,02,45,4.20
2013,10,14,02,46,4.20
2013,10,14,02,47,4.20
2013,10,14,02,48,4.20
2013,10,14,02,49,4.20
2013,10,14,02,50,4.20
2013,10,14,02,51,4.20
2013,10,14,02,52,4.20
2013,10,14,02,53,4.10
2013,10,14,02,54,4.10
2013,10,14,02,55,4.10
2013,10,14,02,56,4.10
2013,10,14,02,57,4.10
2013,10,14,02,58,4.10
2013,10,14,02,59,4.10
2013,10,14,03,00,4.10
2013,10,14,03,01,4.10
2013,10,14,03,02,4.10
2013,10,14,03,03,4.10
2013,10,14,03,04,4.10
2013,10,14,03,05,4.10
2013,10,14,03,06,4.10
2013,10,14,03,07,4.00
2013,10,14,03,08,4.00
2013,10,14,03,09,4.00
2013,10,14,03,10,4.00
2013,10,14,03,11,4.00
2013,10,14,03,12,4.00
2013,10,14,03,13,4.00
2013,10,14,03,14,4.10
2013,10,14,03,15,4.10
2013,10,14,03,16,4.10
2013,10,14,03,17,4.10
2013,10,14,03,18,4.10
2013,10,14,03,19,4.10
2013,10,14,03,20,4.10
2013,10,14,03,21,4.10
2013,10,14,03,22,4.10
2013,10,14,03,23,4.10
2013,10,14,03,24,4.10
2013,10,14,03,25,4.10
2013,10,14,03,26,4.10
2013,10,14,03,27,4.10
2013,10,14,03,28,4.10
2013,10,14,03,29,4.10
2013,10,14,03,30,4.10
2013,10,14,03,31,4.10
2013,10,14,03,32,4.10
2013,10,14,03,33,4.00
2013,10,14,03,34,4.00
2013,10,14,03,35,4.00
2013,10,14,03,36,4.00
2013,10,14,03,37,4.00
2013,10,14,03,38,4.00
2013,10,14,03,39,4.00
2013,10,14,03,40,4.00
2013,10,14,03,41,3.90
2013,10,14,03,42,3.90
2013,10,14,03,43,3.90
2013,10,14,03,44,3.80
2013,10,14,03,45,3.80
2013,10,14,03,46,3.80
2013,10,14,03,47,3.80
2013,10,14,03,48,3.80
2013,10,14,03,49,3.80
2013,10,14,03,50,3.80
2013,10,14,03,51,3.80
2013,10,14,03,52,3.80
2013,10,14,03,53,3.80
2013,10,14,03,54,3.80
2013,10,14,03,55,3.80
2013,10,14,03,56,3.80
2013,10,14,03,57,3.80
2013,10,14,03,58,3.80
2013,10,14,03,59,3.80
2013,10,14,04,00,3.80
2013,10,14,04,01,3.80
2013,10,14,04,02,3.80
2013,10,14,04,03,3.80
2013,10,14,04,04,3.80
2013,10,14,04,05,3.80
2013,10,14,04,06,3.80
2013,10,14,04,07,3.80
2013,10,14,04,08,3.80
2013,10,14,04,09,3.80
2013,10,14,04,10,3.80
2013,10,14,04,11,3.80
2013,10,14,04,12,3.80
2013,10,14,04,13,3.80
2013,10,14,04,14,3.80
2013,10,14,04,15,3.80
2013,10,14,04,16,3.80
2013,10,14,04,17,3.70
2013,10,14,04,18,3.70
2013,10,14,04,19,3.70
2013,10,14,04,20,3.70
2013,10,14,04,21,3.70
2013,10,14,04,22,3.70
2013,10,14,04,23,3.70
2013,10,14,04,24,3.70
2013,10,14,04,25,3.70
2013,10,14,04,26,3.80
2013,10,14,04,27,3.80
2013,10,14,04,28,3.80
2013,10,14,04,29,3.80
2013,10,14,04,30,3.80
2013,10,14,04,31,3.80
2013,10,14,04,32,3.80
2013,10,14,04,33,3.80
2013,10,14,04,34,3.70
2013,10,14,04,35,3.70
2013,10,14,04,36,3.70
2013,10,14,04,37,3.70
2013,10,14,04,38,3.70
2013,10,14,04,39,3.70
2013,10,14,04,40,3.70
2013,10,14,04,41,3.70
2013,10,14,04,42,3.70
2013,10,14,04,43,3.70
2013,10,14,04,44,3.70
2013,10,14,04,45,3.70
2013,10,14,04,46,3.70
2013,10,14,04,47,3.60
2013,10,14,04,48,3.60
2013,10,14,04,49,3.60
2013,10,14,04,50,3.60
2013,10,14,04,51,3.60
2013,10,14,04,52,3.60
2013,10,14,04,53,3.60
2013,10,14,04,54,3.60
2013,10,14,04,55,3.60
2013,10,14,04,56,3.60
2013,10,14,04,57,3.60
2013,10,14,04,58,3.60
2013,10,14,04,59,3.60
2013,10,14,05,00,3.60
2013,10,14,05,01,3.60
2013,10,14,05,02,3.60
2013,10,14,05,03,3.60
2013,10,14,05,04,3.60
2013,10,14,05,05,3.50
2013,10,14,05,06,3.50
2013,10,14,05,07,3.50
2013,10,14,05,08,3.50
2013,10,14,05,09,3.50
2013,10,14,05,10,3.50
2013,10,14,05,11,3.50
2013,10,14,05,12,3.50
2013,10,14,05,13,3.50
2013,10,14,05,14,3.50
2013,10,14,05,15,3.50
2013,10,14,05,16,3.50
2013,10,14,05,17,3.50
2013,10,14,05,18,3.50
2013,10,14,05,19,3.50
2013,10,14,05,20,3.50
2013,10,14,05,21,3.50
2013,10,14,05,22,3.50
2013,10,14,05,23,3.50
2013,10,14,05,24,3.50
2013,10,14,05,25,3.50
2013,10,14,05,26,3.50
2013,10,14,05,27,3.50
2013,10,14,05,28,3.50
2013,10,14,05,29,3.50
2013,10,14,05,30,3.50
2013,10,14,05,31,3.50
2013,10,14,05,32,3.50
2013,10,14,05,33,3.50
2013,10,14,05,34,3.50
2013,10,14,05,35,3.50
2013,10,14,05,36,3.50
2013,10,14,05,37,3.50
2013,10,14,05,38,3.50
2013,10,14,05,39,3.50
2013,10,14,05,40,3.40
2013,10,14,05,41,3.40
2013,10,14,05,42,3.40
2013,10,14,05,43,3.40
2013,10,14,05,44,3.40
2013,10,14,05,45,3.40
2013,10,14,05,46,3.40
2013,10,14,05,47,3.40
2013,10,14,05,48,3.40
2013,10,14,05,49,3.40
2013,10,14,05,50,3.40
2013,10,14,05,51,3.30
2013,10,14,05,52,3.40
2013,10,14,05,53,3.40
2013,10,14,05,54,3.40
2013,10,14,05,55,3.40
2013,10,14,05,56,3.40
2013,10,14,05,57,3.40
2013,10,14,05,58,3.40
2013,10,14,05,59,3.40
2013,10,14,06,00,3.40
2013,10,14,06,01,3.40
2013,10,14,06,02,3.30
2013,10,14,06,03,3.30
2013,10,14,06,04,3.30
2013,10,14,06,05,3.30
2013,10,14,06,06,3.30
2013,10,14,06,07,3.30
2013,10,14,06,08,3.30
2013,10,14,06,09,3.40
2013,10,14,06,10,3.40
2013,10,14,06,11,3.40
2013,10,14,06,12,3.40
2013,10,14,06,13,3.40
2013,10,14,06,14,3.40
2013,10,14,06,15,3.50
2013,10,14,06,16,3.50
2013,10,14,06,17,3.50
2013,10,14,06,18,3.50
2013,10,14,06,19,3.50
2013,10,14,06,20,3.50
2013,10,14,06,21,3.50
2013,10,14,06,22,3.50
2013,10,14,06,23,3.50
2013,10,14,06,24,3.50
2013,10,14,06,25,3.50
2013,10,14,06,26,3.50
2013,10,14,06,27,3.40
2013,10,14,06,28,3.40
2013,10,14,06,29,3.40
2013,10,14,06,30,3.40
2013,10,14,06,31,3.40
2013,10,14,06,32,3.40
2013,10,14,06,33,3.40
2013,10,14,06,34,3.40
2013,10,14,06,35,3.40
2013,10,14,06,36,3.30
2013,10,14,06,37,3.30
2013,10,14,06,38,3.30
2013,10,14,06,39,3.30
2013,10,14,06,40,3.30
2013,10,14,06,41,3.30
2013,10,14,06,42,3.30
2013,10,14,06,43,3.30
2013,10,14,06,44,3.30
2013,10,14,06,45,3.30
2013,10,14,06,46,3.30
2013,10,14,06,47,3.30
2013,10,14,06,48,3.30
2013,10,14,06,49,3.30
2013,10,14,06,50,3.30
2013,10,14,06,51,3.30
2013,10,14,06,52,3.30
2013,10,14,06,53,3.30
2013,10,14,06,54,3.30
2013,10,14,06,55,3.30
2013,10,14,06,56,3.30
2013,10,14,06,57,3.30
2013,10,14,06,58,3.30
2013,10,14,06,59,3.30
2013,10,14,07,00,3.30
2013,10,14,07,01,3.30
2013,10,14,07,02,3.30
2013,10,14,07,03,3.30
2013,10,14,07,04,3.30
2013,10,14,07,05,3.30
2013,10,14,07,06,3.30
2013,10,14,07,07,3.30
2013,10,14,07,08,3.30
2013,10,14,07,09,3.30
2013,10,14,07,10,3.30
2013,10,14,07,11,3.30
2013,10,14,07,12,3.30
2013,10,14,07,13,3.30
2013,10,14,07,14,3.30
2013,10,14,07,15,3.30
2013,10,14,07,16,3.30
2013,10,14,07,17,3.30
2013,10,14,07,18,3.30
2013,10,14,07,19,3.30
2013,10,14,07,20,3.30
2013,10,14,07,21,3.30
2013,10,14,07,22,3.20
2013,10,14,07,23,3.20
2013,10,14,07,24,3.20
2013,10,14,07,25,3.20
2013,10,14,07,26,3.10
2013,10,14,07,27,3.10
2013,10,14,07,28,3.10
2013,10,14,07,29,3.10
2013,10,14,07,30,3.10
2013,10,14,07,31,3.10
2013,10,14,07,32,3.10
2013,10,14,07,33,3.10
2013,10,14,07,34,3.10
2013,10,14,07,35,3.00
2013,10,14,07,36,2.90
2013,10,14,07,37,2.90
2013,10,14,07,38,2.90
2013,10,14,07,39,2.90
2013,10,14,07,40,2.90
2013,10,14,07,41,3.10
2013,10,14,07,42,3.10
2013,10,14,07,43,3.10
2013,10,14,07,44,3.10
2013,10,14,07,45,3.10
2013,10,14,07,46,3.10
2013,10,14,07,47,3.10
2013,10,14,07,48,3.10
2013,10,14,07,49,3.10
2013,10,14,07,50,3.10
2013,10,14,07,51,3.10
2013,10,14,07,52,3.10
2013,10,14,07,53,3.10
2013,10,14,07,54,3.10
2013,10,14,07,55,3.20
2013,10,14,07,56,3.20
2013,10,14,07,57,3.20
2013,10,14,07,58,3.20
2013,10,14,07,59,3.20
2013,10,14,08,00,3.20
2013,10,14,08,01,3.20
2013,10,14,08,02,3.30
2013,10,14,08,03,3.30
2013,10,14,08,04,3.30
2013,10,14,08,05,3.30
2013,10,14,08,06,3.30
2013,10,14,08,07,3.30
2013,10,14,08,08,3.30
2013,10,14,08,09,3.30
2013,10,14,08,10,3.30
2013,10,14,08,11,3.30
2013,10,14,08,12,3.30
2013,10,14,08,13,3.30
2013,10,14,08,14,3.30
2013,10,14,08,15,3.30
2013,10,14,08,16,3.30
2013,10,14,08,17,3.30
2013,10,14,08,18,3.30
2013,10,14,08,19,3.30
2013,10,14,08,20,3.30
2013,10,14,08,21,3.30
2013,10,14,08,22,3.40
2013,10,14,08,23,3.40
2013,10,14,08,24,3.50
2013,10,14,08,25,3.50
2013,10,14,08,26,3.60
2013,10,14,08,27,3.60
2013,10,14,08,28,3.70
2013,10,14,08,29,3.70
2013,10,14,08,30,3.80
2013,10,14,08,31,3.80
2013,10,14,08,32,3.80
2013,10,14,08,33,3.80
2013,10,14,08,34,3.90
2013,10,14,08,35,3.90
2013,10,14,08,36,4.00
2013,10,14,08,37,4.00
2013,10,14,08,38,4.10
2013,10,14,08,39,4.10
2013,10,14,08,40,4.10
2013,10,14,08,41,4.20
2013,10,14,08,42,4.20
2013,10,14,08,43,4.20
2013,10,14,08,44,4.30
2013,10,14,08,45,4.30
2013,10,14,08,46,4.40
2013,10,14,08,47,4.40
2013,10,14,08,48,4.50
2013,10,14,08,49,4.50
2013,10,14,08,50,4.60
2013,10,14,08,51,4.70
2013,10,14,08,52,4.70
2013,10,14,08,53,4.80
2013,10,14,08,54,4.90
2013,10,14,08,55,5.00
2013,10,14,08,56,5.10
2013,10,14,08,57,5.10
2013,10,14,08,58,5.20
2013,10,14,08,59,5.40
2013,10,14,09,00,5.70
2013,10,14,09,01,6.00
2013,10,14,09,02,6.20
2013,10,14,09,03,6.30
2013,10,14,09,04,6.40
2013,10,14,09,05,6.60
2013,10,14,09,06,6.90
2013,10,14,09,07,7.20
2013,10,14,09,08,7.40
2013,10,14,09,09,7.60
2013,10,14,09,10,7.80
2013,10,14,09,11,7.90
2013,10,14,09,12,8.00
2013,10,14,09,13,8.20
2013,10,14,09,14,8.30
2013,10,14,09,15,8.40
2013,10,14,09,16,8.50
2013,10,14,09,17,8.60
2013,10,14,09,18,8.70
2013,10,14,09,19,8.70
2013,10,14,09,20,8.80
2013,10,14,09,21,8.90
2013,10,14,09,22,8.90
2013,10,14,09,23,9.00
2013,10,14,09,24,9.10
2013,10,14,09,25,9.20
2013,10,14,09,26,9.20
2013,10,14,09,27,9.20
2013,10,14,09,28,9.30
2013,10,14,09,29,9.30
2013,10,14,09,30,9.40
2013,10,14,09,31,9.40
2013,10,14,09,32,9.50
2013,10,14,09,33,9.50
2013,10,14,09,34,9.60
2013,10,14,09,35,9.60
2013,10,14,09,36,9.70
2013,10,14,09,37,9.70
2013,10,14,09,38,9.70
2013,10,14,09,39,9.70
2013,10,14,09,40,9.80
2013,10,14,09,41,9.80
2013,10,14,09,42,9.80
2013,10,14,09,43,9.90
2013,10,14,09,44,9.90
2013,10,14,09,45,9.90
2013,10,14,09,46,9.90
2013,10,14,09,47,9.90
2013,10,14,09,48,10.00
2013,10,14,09,49,10.10
2013,10,14,09,50,10.10
2013,10,14,09,51,10.10
2013,10,14,09,52,10.20
2013,10,14,09,53,10.20
2013,10,14,09,54,10.20
2013,10,14,09,55,10.30
2013,10,14,09,56,10.30
2013,10,14,09,57,10.40
2013,10,14,09,58,10.40
2013,10,14,09,59,10.40
2013,10,14,10,00,10.40
2013,10,14,10,01,10.40
2013,10,14,10,02,10.50
2013,10,14,10,03,10.60
2013,10,14,10,04,10.60
2013,10,14,10,05,10.60
2013,10,14,10,06,10.60
2013,10,14,10,07,10.70
2013,10,14,10,08,10.70
2013,10,14,10,09,10.70
2013,10,14,10,10,10.70
2013,10,14,10,11,10.80
2013,10,14,10,12,10.80
2013,10,14,10,13,10.80
2013,10,14,10,14,10.80
2013,10,14,10,15,10.80
2013,10,14,10,16,10.80
2013,10,14,10,17,10.80
2013,10,14,10,18,10.80
2013,10,14,10,19,10.90
2013,10,14,10,20,10.90
2013,10,14,10,21,10.90
2013,10,14,10,22,10.90
2013,10,14,10,23,10.90
2013,10,14,10,24,10.90
2013,10,14,10,25,10.90
2013,10,14,10,26,10.90
2013,10,14,10,27,10.90
2013,10,14,10,28,11.00
2013,10,14,10,29,11.10
2013,10,14,10,30,11.10
2013,10,14,10,31,11.20
2013,10,14,10,32,11.20
2013,10,14,10,33,11.20
2013,10,14,10,34,11.20
2013,10,14,10,35,11.20
2013,10,14,10,36,11.20
2013,10,14,10,37,11.10
2013,10,14,10,38,11.10
2013,10,14,10,39,11.10
2013,10,14,10,40,11.10
2013,10,14,10,41,11.20
2013,10,14,10,42,11.20
2013,10,14,10,43,11.20
2013,10,14,10,44,11.20
2013,10,14,10,45,11.20
2013,10,14,10,46,11.20
2013,10,14,10,47,11.30
2013,10,14,10,48,11.30
2013,10,14,10,49,11.30
2013,10,14,10,50,11.30
2013,10,14,10,51,11.30
2013,10,14,10,52,11.40
2013,10,14,10,53,11.40
2013,10,14,10,54,11.40
2013,10,14,10,55,11.50
2013,10,14,10,56,11.60
2013,10,14,10,57,11.60
2013,10,14,10,58,11.60
2013,10,14,10,59,11.70
2013,10,14,11,00,11.70
2013,10,14,11,01,11.80
2013,10,14,11,02,11.80
2013,10,14,11,03,11.80
2013,10,14,11,04,11.70
2013,10,14,11,05,11.60
2013,10,14,11,06,11.60
2013,10,14,11,07,11.60
2013,10,14,11,08,11.70
2013,10,14,11,09,11.80
2013,10,14,11,10,11.80
2013,10,14,11,11,11.80
2013,10,14,11,12,11.90
2013,10,14,11,13,12.00
2013,10,14,11,14,12.00
2013,10,14,11,15,12.00
2013,10,14,11,16,12.00
2013,10,14,11,17,11.90
2013,10,14,11,18,12.00
2013,10,14,11,19,12.10
2013,10,14,11,20,12.10
2013,10,14,11,21,12.20
2013,10,14,11,22,12.30
2013,10,14,11,23,12.30
2013,10,14,11,24,12.30
2013,10,14,11,25,12.30
2013,10,14,11,26,12.40
2013,10,14,11,27,12.30
2013,10,14,11,28,12.40
2013,10,14,11,29,12.50
2013,10,14,11,30,12.50
2013,10,14,11,31,12.60
2013,10,14,11,32,12.60
2013,10,14,11,33,12.60
2013,10,14,11,34,12.70
2013,10,14,11,35,12.70
2013,10,14,11,36,12.70
2013,10,14,11,37,12.80
2013,10,14,11,38,12.70
2013,10,14,11,39,12.60
2013,10,14,11,40,12.60
2013,10,14,11,41,12.60
2013,10,14,11,42,12.60
2013,10,14,11,43,12.70
2013,10,14,11,44,12.80
2013,10,14,11,45,12.90
2013,10,14,11,46,12.90
2013,10,14,11,47,13.00
2013,10,14,11,48,13.00
2013,10,14,11,49,13.10
2013,10,14,11,50,13.10
2013,10,14,11,51,13.10
2013,10,14,11,52,13.20
2013,10,14,11,53,13.20
2013,10,14,11,54,13.30
2013,10,14,11,55,13.40
2013,10,14,11,56,13.50
2013,10,14,11,57,13.60
2013,10,14,11,58,13.70
2013,10,14,11,59,13.70
2013,10,14,12,00,13.70
2013,10,14,12,01,13.70
2013,10,14,12,02,13.80
2013,10,14,12,03,13.90
2013,10,14,12,04,13.90
2013,10,14,12,05,13.80
2013,10,14,12,06,13.80
2013,10,14,12,07,13.80
2013,10,14,12,08,13.80
2013,10,14,12,09,13.80
2013,10,14,12,10,13.90
2013,10,14,12,11,13.90
2013,10,14,12,12,13.90
2013,10,14,12,13,14.00
2013,10,14,12,14,14.00
2013,10,14,12,15,14.00
2013,10,14,12,16,13.90
2013,10,14,12,17,13.90
2013,10,14,12,18,13.90
2013,10,14,12,19,13.90
2013,10,14,12,20,14.00
2013,10,14,12,21,14.00
2013,10,14,12,22,14.00
2013,10,14,12,23,14.10
2013,10,14,12,24,14.10
2013,10,14,12,25,14.10
2013,10,14,12,26,14.20
2013,10,14,12,27,14.20
2013,10,14,12,28,14.20
2013,10,14,12,29,14.30
2013,10,14,12,30,14.40
2013,10,14,12,31,14.40
2013,10,14,12,32,14.40
2013,10,14,12,33,14.40
2013,10,14,12,34,14.40
2013,10,14,12,35,14.40
2013,10,14,12,36,14.50
2013,10,14,12,37,14.50
2013,10,14,12,38,14.50
2013,10,14,12,39,14.50
2013,10,14,12,40,14.60
2013,10,14,12,41,14.60
2013,10,14,12,42,14.60
2013,10,14,12,43,14.60
2013,10,14,12,44,14.70
2013,10,14,12,45,14.80
2013,10,14,12,46,14.80
2013,10,14,12,47,14.80
2013,10,14,12,48,14.80
2013,10,14,12,49,14.80
2013,10,14,12,50,14.80
2013,10,14,12,51,14.80
2013,10,14,12,52,14.90
2013,10,14,12,53,14.90
2013,10,14,12,54,15.00
2013,10,14,12,55,15.00
2013,10,14,12,56,15.00
2013,10,14,12,57,15.00
2013,10,14,12,58,14.90
2013,10,14,12,59,14.90
2013,10,14,13,00,14.80
2013,10,14,13,01,15.00
2013,10,14,13,02,15.10
2013,10,14,13,03,15.20
2013,10,14,13,04,15.30
2013,10,14,13,05,15.30
2013,10,14,13,06,15.20
2013,10,14,13,07,15.10
2013,10,14,13,08,15.10
2013,10,14,13,09,15.10
2013,10,14,13,10,15.20
2013,10,14,13,11,15.20
2013,10,14,13,12,15.20
2013,10,14,13,13,15.20
2013,10,14,13,14,15.30
2013,10,14,13,15,15.40
2013,10,14,13,16,15.50
2013,10,14,13,17,15.40
2013,10,14,13,18,15.40
2013,10,14,13,19,15.40
2013,10,14,13,20,15.40
2013,10,14,13,21,15.40
2013,10,14,13,22,15.50
2013,10,14,13,23,15.50
2013,10,14,13,24,15.50
2013,10,14,13,25,15.50
2013,10,14,13,26,15.50
2013,10,14,13,27,15.50
2013,10,14,13,28,15.50
2013,10,14,13,29,15.50
2013,10,14,13,30,15.50
2013,10,14,13,31,15.50
2013,10,14,13,32,15.60
2013,10,14,13,33,15.60
2013,10,14,13,34,15.70
2013,10,14,13,35,15.70
2013,10,14,13,36,15.70
2013,10,14,13,37,15.70
2013,10,14,13,38,15.70
2013,10,14,13,39,15.70
2013,10,14,13,40,15.70
2013,10,14,13,41,15.80
2013,10,14,13,42,15.80
2013,10,14,13,43,15.80
2013,10,14,13,44,15.80
2013,10,14,13,45,15.80
2013,10,14,13,46,15.80
2013,10,14,13,47,15.90
2013,10,14,13,48,15.90
2013,10,14,13,49,15.90
2013,10,14,13,50,16.10
2013,10,14,13,51,16.10
2013,10,14,13,52,16.10
2013,10,14,13,53,16.20
2013,10,14,13,54,16.20
2013,10,14,13,55,16.20
2013,10,14,13,56,16.20
2013,10,14,13,57,16.20
2013,10,14,13,58,16.20
2013,10,14,13,59,16.20
2013,10,14,14,00,16.20
2013,10,14,14,01,16.20
2013,10,14,14,02,16.30
2013,10,14,14,03,16.40
2013,10,14,14,04,16.20
2013,10,14,14,05,16.10
2013,10,14,14,06,16.00
2013,10,14,14,07,15.80
2013,10,14,14,08,15.70
2013,10,14,14,09,15.70
2013,10,14,14,10,15.70
2013,10,14,14,11,15.70
2013,10,14,14,12,15.70
2013,10,14,14,13,15.70
2013,10,14,14,14,15.60
2013,10,14,14,15,15.60
2013,10,14,14,16,15.70
2013,10,14,14,17,15.70
2013,10,14,14,18,15.70
2013,10,14,14,19,15.80
2013,10,14,14,20,15.70
2013,10,14,14,21,15.60
2013,10,14,14,22,15.60
2013,10,14,14,23,15.60
2013,10,14,14,24,15.60
2013,10,14,14,25,15.70
2013,10,14,14,26,15.80
2013,10,14,14,27,15.90
2013,10,14,14,28,16.00
2013,10,14,14,29,16.10
2013,10,14,14,30,16.10
2013,10,14,14,31,16.00
2013,10,14,14,32,15.80
2013,10,14,14,33,15.70
2013,10,14,14,34,15.60
2013,10,14,14,35,15.60
2013,10,14,14,36,15.50
2013,10,14,14,37,15.30
2013,10,14,14,38,15.30
2013,10,14,14,39,15.40
2013,10,14,14,40,15.40
2013,10,14,14,41,15.40
2013,10,14,14,42,15.40
2013,10,14,14,43,15.30
2013,10,14,14,44,15.30
2013,10,14,14,45,15.20
2013,10,14,14,46,15.20
2013,10,14,14,47,15.20
2013,10,14,14,48,15.10
2013,10,14,14,49,15.10
2013,10,14,14,50,15.10
2013,10,14,14,51,15.10
2013,10,14,14,52,15.10
2013,10,14,14,53,14.90
2013,10,14,14,54,14.80
2013,10,14,14,55,14.80
2013,10,14,14,56,14.70
2013,10,14,14,57,14.80
2013,10,14,14,58,14.90
2013,10,14,14,59,15.00
2013,10,14,15,00,15.20
2013,10,14,15,01,15.20
2013,10,14,15,02,15.20
2013,10,14,15,03,15.30
2013,10,14,15,04,15.20
2013,10,14,15,05,15.20
2013,10,14,15,06,15.20
2013,10,14,15,07,15.20
2013,10,14,15,08,15.30
2013,10,14,15,09,15.10
2013,10,14,15,10,15.10
2013,10,14,15,11,15.10
2013,10,14,15,12,15.10
2013,10,14,15,13,15.10
2013,10,14,15,14,15.10
2013,10,14,15,15,15.00
2013,10,14,15,16,15.10
2013,10,14,15,17,15.20
2013,10,14,15,18,15.20
2013,10,14,15,19,15.30
2013,10,14,15,20,15.30
2013,10,14,15,21,15.30
2013,10,14,15,22,15.30
2013,10,14,15,23,15.30
2013,10,14,15,24,15.40
2013,10,14,15,25,15.50
2013,10,14,15,26,15.50
2013,10,14,15,27,15.50
2013,10,14,15,28,15.60
2013,10,14,15,29,15.70
2013,10,14,15,30,15.80
2013,10,14,15,31,15.70
2013,10,14,15,32,15.80
2013,10,14,15,33,15.80
2013,10,14,15,34,15.90
2013,10,14,15,35,15.90
2013,10,14,15,36,16.00
2013,10,14,15,37,16.10
2013,10,14,15,38,16.00
2013,10,14,15,39,15.70
2013,10,14,15,40,15.60
2013,10,14,15,41,15.50
2013,10,14,15,42,15.50
2013,10,14,15,43,15.40
2013,10,14,15,44,15.30
2013,10,14,15,45,15.30
2013,10,14,15,46,15.30
2013,10,14,15,47,15.30
2013,10,14,15,48,15.30
2013,10,14,15,49,15.20
2013,10,14,15,50,15.30
2013,10,14,15,51,15.30
2013,10,14,15,52,15.30
2013,10,14,15,53,15.20
2013,10,14,15,54,15.20
2013,10,14,15,55,15.30
2013,10,14,15,56,15.30
2013,10,14,15,57,15.30
2013,10,14,15,58,15.30
2013,10,14,15,59,15.30
2013,10,14,16,00,15.20
2013,10,14,16,01,15.10
2013,10,14,16,02,15.00
2013,10,14,16,03,15.10
2013,10,14,16,04,15.00
2013,10,14,16,05,15.00
2013,10,14,16,06,15.00
2013,10,14,16,07,15.00
2013,10,14,16,08,14.90
2013,10,14,16,09,14.80
2013,10,14,16,10,14.80
2013,10,14,16,11,14.80
2013,10,14,16,12,14.80
2013,10,14,16,13,14.80
2013,10,14,16,14,14.80
2013,10,14,16,15,14.80
2013,10,14,16,16,14.90
2013,10,14,16,17,14.90
2013,10,14,16,18,15.00
2013,10,14,16,19,15.00
2013,10,14,16,20,15.00
2013,10,14,16,21,15.00
2013,10,14,16,22,15.00
2013,10,14,16,23,14.90
2013,10,14,16,24,14.70
2013,10,14,16,25,14.60
2013,10,14,16,26,14.50
2013,10,14,16,27,14.40
2013,10,14,16,28,14.30
2013,10,14,16,29,14.30
2013,10,14,16,30,14.30
2013,10,14,16,31,14.30
2013,10,14,16,32,14.20
2013,10,14,16,33,14.20
2013,10,14,16,34,14.30
2013,10,14,16,35,14.40
2013,10,14,16,36,14.50
2013,10,14,16,37,14.50
2013,10,14,16,38,14.60
2013,10,14,16,39,14.60
2013,10,14,16,40,14.60
2013,10,14,16,41,14.60
2013,10,14,16,42,14.60
2013,10,14,16,43,14.60
2013,10,14,16,44,14.60
2013,10,14,16,45,14.70
2013,10,14,16,46,14.70
2013,10,14,16,47,14.70
2013,10,14,16,48,14.70
2013,10,14,16,49,14.80
2013,10,14,16,50,14.80
2013,10,14,16,51,14.80
2013,10,14,16,52,14.80
2013,10,14,16,53,14.80
2013,10,14,16,54,14.80
2013,10,14,16,55,14.80
2013,10,14,16,56,14.80
2013,10,14,16,57,14.80
2013,10,14,16,58,14.80
2013,10,14,16,59,14.80
2013,10,14,17,00,14.80
2013,10,14,17,01,14.80
2013,10,14,17,02,14.80
2013,10,14,17,03,14.80
2013,10,14,17,04,14.80
2013,10,14,17,05,14.80
2013,10,14,17,06,14.80
2013,10,14,17,07,14.80
2013,10,14,17,08,14.70
2013,10,14,17,09,14.50
2013,10,14,17,10,14.30
2013,10,14,17,11,14.20
2013,10,14,17,12,14.20
2013,10,14,17,13,14.20
2013,10,14,17,14,14.20
2013,10,14,17,15,14.20
2013,10,14,17,16,14.20
2013,10,14,17,17,14.20
2013,10,14,17,18,14.20
2013,10,14,17,19,14.20
2013,10,14,17,20,14.10
2013,10,14,17,21,14.10
2013,10,14,17,22,14.00
2013,10,14,17,23,14.00
2013,10,14,17,24,14.00
2013,10,14,17,25,14.00
2013,10,14,17,26,14.00
2013,10,14,17,27,13.90
2013,10,14,17,28,13.90
2013,10,14,17,29,13.90
2013,10,14,17,30,13.90
2013,10,14,17,31,13.90
2013,10,14,17,32,13.90
2013,10,14,17,33,13.90
2013,10,14,17,34,13.90
2013,10,14,17,35,14.00
2013,10,14,17,36,14.00
2013,10,14,17,37,14.00
2013,10,14,17,38,14.00
2013,10,14,17,39,14.00
2013,10,14,17,40,14.00
2013,10,14,17,41,14.00
2013,10,14,17,42,14.00
2013,10,14,17,43,14.00
2013,10,14,17,44,14.00
2013,10,14,17,45,14.10